| time (UTC) | temp F | wind direction | speed MPH | gust MPH | rain 1hr in | rain 24hr in | rain mn in | humidity % | barometer mb |
| 20260509055325 | 68 | 141 | 4.0 | 8.0 | 0.00 | 0.00 | 0.00 | 66 | 1022.5 |
| 20260509054301 | 68 | 143 | 5.0 | 10.0 | 0.00 | 0.00 | 0.00 | 68 | 1022.4 |
| 20260509053242 | 68 | 165 | 4.0 | 9.0 | 0.00 | 0.00 | 0.00 | 68 | 1022.3 |
| 20260509052232 | 69 | 112 | 4.0 | 9.0 | 0.00 | 0.00 | 0.00 | 66 | 1022.3 |
| 20260509051159 | 69 | 113 | 4.0 | 9.0 | 0.00 | 0.00 | 0.00 | 67 | 1022.2 |
| 20260509050202 | 69 | 164 | 4.0 | 10.0 | 0.00 | 0.00 | 0.00 | 67 | 1022.2 |
| 20260509045158 | 69 | 141 | 5.0 | 10.0 | 0.00 | 0.00 | 0.00 | 65 | 1022.3 |
| 20260509044130 | 69 | 199 | 5.0 | 9.0 | 0.00 | 0.00 | 0.00 | 66 | 1022.3 |
| 20260509043153 | 69 | 176 | 6.0 | 10.0 | 0.00 | 0.00 | 0.00 | 67 | 1022.2 |
| 20260509042128 | 69 | 169 | 6.0 | 10.0 | 0.00 | 0.00 | 0.00 | 68 | 1022.2 |
| 20260509040017 | 69 | 189 | 5.0 | 12.0 | 0.00 | 0.00 | 0.00 | 66 | 1022.3 |
| 20260509033819 | 69 | 149 | 5.0 | 13.0 | 0.00 | 0.00 | 0.00 | 66 | 1022.3 |
| 20260509032803 | 68 | 173 | 7.0 | 13.0 | 0.00 | 0.00 | 0.00 | 67 | 1022.4 |
| 20260509031748 | 69 | 162 | 6.0 | 11.0 | 0.00 | 0.00 | 0.00 | 68 | 1022.4 |
| 20260509025636 | 69 | 148 | 6.0 | 12.0 | 0.00 | 0.00 | 0.00 | 66 | 1022.5 |
| 20260509024631 | 69 | 146 | 6.0 | 10.0 | 0.00 | 0.00 | 0.00 | 63 | 1022.6 |
| 20260509023655 | 69 | 210 | 5.0 | 10.0 | 0.00 | 0.00 | 0.00 | 65 | 1022.7 |
| 20260509022715 | 70 | 133 | 5.0 | 9.0 | 0.00 | 0.00 | 0.00 | 64 | 1022.9 |
| 20260509020522 | 71 | 179 | 3.0 | 7.0 | 0.00 | 0.00 | 0.00 | 58 | 1023.0 |
| 20260509015458 | 71 | 169 | 3.0 | 8.0 | 0.00 | 0.00 | 0.00 | 57 | 1023.1 |
| 20260509014508 | 71 | 196 | 3.0 | 8.0 | 0.00 | 0.00 | 0.00 | 57 | 1023.2 |
| 20260509013451 | 70 | 247 | 4.0 | 7.0 | 0.00 | 0.00 | 0.00 | 57 | 1023.4 |
| 20260509012513 | 71 | 180 | 3.0 | 8.0 | 0.00 | 0.00 | 0.00 | 56 | 1023.5 |
| 20260509011536 | 70 | 180 | 3.0 | 8.0 | 0.00 | 0.00 | 0.00 | 58 | 1023.7 |
| 20260509010523 | 70 | 196 | 3.0 | 7.0 | 0.00 | 0.00 | 0.00 | 59 | 1023.7 |
| 20260509005539 | 70 | 200 | 3.0 | 6.0 | 0.00 | 0.00 | 0.00 | 58 | 1023.9 |
| 20260509004603 | 70 | 193 | 3.0 | 7.0 | 0.00 | 0.00 | 0.00 | 58 | 1024.0 |
| 20260509002441 | 70 | 221 | 2.0 | 8.0 | 0.00 | 0.00 | 0.00 | 59 | 1024.0 |
| 20260509001422 | 69 | 245 | 2.0 | 12.0 | 0.00 | 0.00 | 0.00 | 60 | 1024.1 |
| 20260508235325 | 68 | 305 | 2.0 | 7.0 | 0.00 | 0.00 | 0.00 | 62 | 1024.1 |
| 20260508234322 | 68 | 248 | 3.0 | 7.0 | 0.00 | 0.00 | 0.00 | 61 | 1024.1 |
| 20260508233252 | 66 | 272 | 3.0 | 7.0 | 0.00 | 0.00 | 0.00 | 64 | 1024.1 |
| 20260508232314 | 66 | 300 | 2.0 | 6.0 | 0.00 | 0.00 | 0.00 | 65 | 1024.0 |
| 20260508230233 | 62 | 8 | 2.0 | 8.0 | 0.00 | 0.00 | 0.00 | 71 | 1024.0 |
| 20260508225229 | 61 | 292 | 3.0 | 8.0 | 0.00 | 0.00 | 0.00 | 72 | 1024.0 |
| 20260508224217 | 60 | 321 | 4.0 | 8.0 | 0.00 | 0.00 | 0.00 | 73 | 1024.0 |
| 20260508223152 | 59 | 319 | 3.0 | 8.0 | 0.00 | 0.00 | 0.00 | 75 | 1023.9 |
| 20260508222213 | 58 | 309 | 3.0 | 7.0 | 0.00 | 0.00 | 0.00 | 77 | 1023.9 |
| 20260508221200 | 57 | 310 | 2.0 | 7.0 | 0.00 | 0.00 | 0.00 | 79 | 1023.8 |
| 20260508220152 | 56 | 307 | 3.0 | 6.0 | 0.00 | 0.00 | 0.00 | 80 | 1023.7 |
| 20260508215139 | 55 | 285 | 1.0 | 5.0 | 0.00 | 0.00 | 0.00 | 81 | 1023.6 |
| 20260508214146 | 55 | 316 | 0.0 | 3.0 | 0.00 | 0.00 | 0.00 | 82 | 1023.5 |
| 20260508213140 | 53 | 302 | 1.0 | 1.0 | 0.00 | 0.00 | 0.00 | 82 | 1023.4 |
| 20260508212147 | 53 | 320 | 2.0 | 6.0 | 0.00 | 0.00 | 0.00 | 82 | 1023.2 |
| 20260508211203 | 52 | 304 | 1.0 | 7.0 | 0.00 | 0.00 | 0.00 | 82 | 1023.2 |
| 20260508210222 | 52 | 319 | 2.0 | 7.0 | 0.00 | 0.00 | 0.00 | 82 | 1023.1 |
| 20260508205226 | 52 | 326 | 1.0 | 6.0 | 0.00 | 0.00 | 0.00 | 82 | 1022.8 |
| 20260508204219 | 52 | 313 | 1.0 | 6.0 | 0.00 | 0.00 | 0.00 | 81 | 1022.7 |
| 20260508203206 | 52 | 306 | 1.0 | 5.0 | 0.00 | 0.00 | 0.00 | 81 | 1022.6 |
| 20260508202137 | 52 | 307 | 1.0 | 5.0 | 0.00 | 0.00 | 0.00 | 81 | 1022.5 |
| 20260508200024 | 54 | 310 | 1.0 | 8.0 | 0.00 | 0.00 | 0.00 | 79 | 1022.3 |
| 20260508195037 | 55 | 321 | 1.0 | 8.0 | 0.00 | 0.00 | 0.00 | 80 | 1022.2 |
| 20260508191645 | 53 | 283 | 0.0 | 5.0 | 0.00 | 0.00 | 0.00 | 82 | 1021.6 |
| 20260508184313 | 52 | 314 | 1.0 | 4.0 | 0.00 | 0.00 | 0.00 | 81 | 1021.6 |
| 20260508182149 | 52 | 319 | 0.0 | 3.0 | 0.00 | 0.00 | 0.00 | 81 | 1021.6 |
| 20260508181206 | 53 | 334 | 0.0 | 2.0 | 0.00 | 0.00 | 0.00 | 80 | 1021.6 |
| 20260508175118 | 53 | 310 | 0.0 | 3.0 | 0.00 | 0.00 | 0.00 | 81 | 1021.4 |
| 20260508174115 | 53 | 318 | 1.0 | 0.0 | 0.00 | 0.00 | 0.00 | 80 | 1021.3 |
| 20260508173104 | 53 | 295 | 1.0 | 4.0 | 0.00 | 0.00 | 0.00 | 80 | 1021.3 |
| 20260508172109 | 53 | 311 | 2.0 | 5.0 | 0.00 | 0.00 | 0.00 | 80 | 1021.3 |
| 20260508171039 | 53 | 282 | 2.0 | 5.0 | 0.00 | 0.00 | 0.00 | 80 | 1021.3 |
| 20260508170055 | 53 | 337 | 1.0 | 3.0 | 0.00 | 0.00 | 0.00 | 80 | 1021.3 |
| 20260508165114 | 53 | 317 | 0.0 | 2.0 | 0.00 | 0.00 | 0.00 | 79 | 1021.2 |
| 20260508164128 | 53 | 334 | 1.0 | 2.0 | 0.00 | 0.00 | 0.00 | 79 | 1021.1 |
| 20260508163107 | 53 | 326 | 0.0 | 2.0 | 0.00 | 0.00 | 0.00 | 79 | 1021.2 |
| 20260508162036 | 53 | 311 | 1.0 | 2.0 | 0.00 | 0.00 | 0.00 | 79 | 1021.2 |
| 20260508161008 | 53 | 307 | 0.0 | 1.0 | 0.00 | 0.00 | 0.00 | 79 | 1021.3 |
| 20260508154858 | 53 | 315 | 1.0 | 3.0 | 0.00 | 0.00 | 0.00 | 79 | 1021.3 |
| 20260508153828 | 53 | 324 | 1.0 | 4.0 | 0.00 | 0.00 | 0.00 | 78 | 1021.3 |
| 20260508152806 | 53 | 319 | 2.0 | 4.0 | 0.00 | 0.00 | 0.00 | 78 | 1021.3 |
| 20260508151813 | 53 | 314 | 0.0 | 2.0 | 0.00 | 0.00 | 0.00 | 78 | 1021.2 |
| 20260508150802 | 54 | 326 | 0.0 | 0.0 | 0.00 | 0.00 | 0.00 | 77 | 1021.3 |
| 20260508145732 | 54 | 326 | 0.0 | 0.0 | 0.00 | 0.00 | 0.00 | 77 | 1021.3 |
| 20260508144728 | 54 | 326 | 0.0 | 0.0 | 0.00 | 0.00 | 0.00 | 76 | 1021.2 |
| 20260508143708 | 55 | 324 | 0.0 | 0.0 | 0.00 | 0.00 | 0.00 | 75 | 1021.2 |
| 20260508141538 | 55 | 325 | 1.0 | 3.0 | 0.00 | 0.00 | 0.00 | 74 | 1021.0 |
| 20260508140547 | 56 | 309 | 1.0 | 4.0 | 0.00 | 0.00 | 0.00 | 74 | 1020.9 |
| 20260508135533 | 56 | 315 | 1.0 | 4.0 | 0.00 | 0.00 | 0.00 | 73 | 1020.8 |
| 20260508134550 | 56 | 331 | 1.0 | 3.0 | 0.00 | 0.00 | 0.00 | 72 | 1020.8 |
| 20260508133537 | 57 | 333 | 0.0 | 2.0 | 0.00 | 0.00 | 0.00 | 71 | 1020.8 |
| 20260508132525 | 58 | 335 | 1.0 | 3.0 | 0.00 | 0.00 | 0.00 | 70 | 1020.9 |
| 20260508131505 | 58 | 340 | 1.0 | 5.0 | 0.00 | 0.00 | 0.00 | 69 | 1020.7 |
| 20260508130502 | 59 | 359 | 1.0 | 5.0 | 0.00 | 0.00 | 0.00 | 68 | 1020.8 |
| 20260508125519 | 59 | 300 | 1.0 | 5.0 | 0.00 | 0.00 | 0.00 | 68 | 1020.7 |
| 20260508122255 | 59 | 325 | 2.0 | 8.0 | 0.00 | 0.00 | 0.00 | 67 | 1020.6 |
| 20260508121223 | 59 | 224 | 2.0 | 10.0 | 0.00 | 0.00 | 0.00 | 66 | 1020.7 |
| 20260508120156 | 59 | 238 | 2.0 | 10.0 | 0.00 | 0.00 | 0.00 | 66 | 1020.6 |
| 20260508115141 | 60 | 302 | 2.0 | 7.0 | 0.00 | 0.00 | 0.00 | 66 | 1020.6 |
| 20260508114121 | 60 | 250 | 2.0 | 9.0 | 0.00 | 0.00 | 0.00 | 65 | 1020.5 |
| 20260508112020 | 61 | 275 | 2.0 | 9.0 | 0.00 | 0.00 | 0.00 | 64 | 1020.4 |
| 20260508111007 | 61 | 232 | 3.0 | 9.0 | 0.00 | 0.00 | 0.00 | 63 | 1020.5 |
| 20260508105940 | 61 | 250 | 2.0 | 7.0 | 0.00 | 0.00 | 0.00 | 63 | 1020.5 |
| 20260508104931 | 62 | 269 | 3.0 | 14.0 | 0.00 | 0.00 | 0.00 | 62 | 1020.4 |
| 20260508103938 | 62 | 236 | 4.0 | 14.0 | 0.00 | 0.00 | 0.00 | 62 | 1020.2 |
| 20260508102920 | 62 | 238 | 5.0 | 11.0 | 0.00 | 0.00 | 0.00 | 61 | 1020.1 |
| 20260508101935 | 62 | 207 | 4.0 | 11.0 | 0.00 | 0.00 | 0.00 | 61 | 1020.0 |
| 20260508100935 | 62 | 276 | 3.0 | 11.0 | 0.00 | 0.00 | 0.00 | 60 | 1019.9 |
| 20260508095941 | 63 | 204 | 4.0 | 11.0 | 0.00 | 0.00 | 0.00 | 59 | 1019.8 |
| 20260508094952 | 63 | 229 | 4.0 | 12.0 | 0.00 | 0.00 | 0.00 | 59 | 1019.7 |
| 20260508092801 | 64 | 293 | 5.0 | 12.0 | 0.00 | 0.00 | 0.00 | 58 | 1019.3 |
| 20260508091746 | 64 | 241 | 4.0 | 9.0 | 0.00 | 0.00 | 0.00 | 57 | 1019.1 |
| 20260508090759 | 64 | 226 | 4.0 | 9.0 | 0.00 | 0.00 | 0.00 | 57 | 1019.1 |
| 20260508085746 | 65 | 243 | 4.0 | 9.0 | 0.00 | 0.00 | 0.00 | 56 | 1018.9 |
| 20260508084752 | 64 | 248 | 3.0 | 8.0 | 0.00 | 0.00 | 0.00 | 57 | 1018.8 |
| 20260508083738 | 65 | 245 | 0.0 | 5.0 | 0.00 | 0.00 | 0.00 | 56 | 1018.5 |
| 20260508081641 | 66 | 262 | 2.0 | 8.0 | 0.00 | 0.00 | 0.00 | 55 | 1018.1 |
| 20260508080609 | 66 | 219 | 2.0 | 5.0 | 0.00 | 0.00 | 0.00 | 54 | 1017.9 |
| 20260508075611 | 66 | 243 | 2.0 | 6.0 | 0.00 | 0.00 | 0.00 | 54 | 1017.7 |
| 20260508074609 | 66 | 205 | 2.0 | 6.0 | 0.00 | 0.00 | 0.00 | 54 | 1017.5 |
| 20260508073558 | 66 | 230 | 2.0 | 8.0 | 0.00 | 0.00 | 0.00 | 52 | 1017.3 |
| 20260508072553 | 67 | 250 | 3.0 | 9.0 | 0.00 | 0.00 | 0.00 | 52 | 1017.0 |
| 20260508070448 | 68 | 256 | 2.0 | 7.0 | 0.00 | 0.00 | 0.00 | 51 | 1016.6 |
| 20260508064326 | 69 | 217 | 2.0 | 9.0 | 0.00 | 0.00 | 0.00 | 49 | 1016.2 |
| 20260508063333 | 69 | 229 | 3.0 | 9.0 | 0.00 | 0.00 | 0.00 | 47 | 1016.0 |
| 20260508062311 | 70 | 263 | 2.0 | 9.0 | 0.00 | 0.00 | 0.00 | 46 | 1015.8 |
| 20260508061313 | 71 | 264 | 3.0 | 10.0 | 0.00 | 0.00 | 0.00 | 45 | 1015.6 |